STARLINK-35215, 65813

Orbit data source: Space-Track

STARLINK-35215, 65813 is a payload satellite owned by SpaceX/Seattle (US) in SSO that was launched on Fri, 26 Sep 2025 UTC via an FALCON 9 launch vehicle from the Air Force Western Test Range (AFWTR). Payload-class satellites include a variety of spacecraft equipped with specific instruments for various scientific and technological missions. These include communications satellites like Starlink; space stations such as the ISS; scientific satellites like the Hubble; Earth observation satellites from companies like Planet Labs, Umbra, and HawkEye 360; GPS; miniature CubeSats for education and research; and military/defense satellites.

Loading next visibility...
Identifier
65813, 2025-218Y
Orbit
SSO
Country
Flag of USUS
Related business
Manufacturer
SpaceX/Seattle
Mission
Operational Commercial Communications
Bus & Motor
STARLINK V2MO, Unknown motor
Mass
575 kg wet, ~530 kg dry
Launch date (UTC)
2025-09-26 (5 months ago)
Launch vehicle
FALCON 9
Launch site
Air Force Western Test Range (AFWTR)
Object type
Payload
Rocket body
Debris
Shape & HBR
Box + 2 Pan, 17.7 m
Radar Cross Section
36.964 m²

Expand to show TLE details & history
Last TLE update: 9 hours ago

TLE from 9 hours ago
0 STARLINK-35215
1 65813U 25218Y   26062.50290598  .00004292  00000-0  30139-3 0  9991
2 65813  97.6014 286.9331 0001845  86.2996 273.8442 15.05657466 24047
Epoch: 2026-03-03T12:04Z
TLE epoch observation values (Epoch: 2026-03-03T12:04:11.076Z)
Latitude
-0.00001°
Longitude
-55.39408°
Altitude
552.468 km
Speed
7.586 km/s
True Right ascension
19h 07m 43s
True Declination
0° 00' 00"
Sunlit
Object was in daylight at epoch
Visualization orbit readout
Latitude
Unknown
Longitude
Unknown
Altitude
Unknown
Speed
Unknown
Apparent Right ascension
Unknown
Apparent Declination
Unknown
Sunlit
N/A
Visualization observer readout
Local Sidereal Time
00:34:32
Azimuth
Unknown
Elevation
Unknown
Doppler factor
Unknown
Orbital elements
Apogee altitude
547.759 km
Perigee altitude
545.204 km
Semi-major axis
6,924.619 km
Eccentricity
0.00018
Inclination
97.6014°
RAAN
286.9331°
Arg. of periapsis
86.2996°
True anomaly
273.82311°
Mean anomaly
273.8442°
Eccentric anomaly
273.83365°
Mean motion
3.7666 °/min
Orbital period
95.58 mins
BSTAR
0.00030139
Loading maneuver chart data...
Computing Atmospheric mass density...
Loading historical data...
Loading historical data...
Loading historical data...
Loading historical data...
Loading historical data...
Loading historical data...
Loading historical data...

Documentation

Showing up to 5 results
|